Terminal Aerodrome Forecast
Issued by NWS

Home | Current Version | Previous Version | Graphics & Text | Print | Product List | Glossary Off
Versions: 1 2 3 4 5 6 7 8 9 10 11 12 13 14 15 16 17 18 19 20 21 22 23 24 25 26 27 28 29 30 31 32 33 34 35 36 37 38 39 40 41

000
FTUS43 KDDC 182320
TAFGCK
TAF
KGCK 182320Z 1900/1924 27015G23KT P6SM FEW080
     FM190100 27010KT P6SM BKN100
     FM191400 34015G23KT P6SM BKN015
     FM191800 35027G37KT P6SM BKN050=

USA.gov is the U.S. government's official web portal to all federal, state and local government web resources and services.